This is the latest recevied weather packets stored in our database for station/object KA3BQE-13. If no packets are shown the sender has not sent any weather packets the latest 10 day(s).
| Time | Temp. | Humidity | Pressure | Rain* | Wind** | Luminosity | Snow |
|---|---|---|---|---|---|---|---|
| 1777384407 | 11.11° C | 84% | 1016.9 hPa | 0 mm | - | 145 W/m² | - |
| 1777384103 | 11.11° C | 84% | 1016.8 hPa | 0 mm | - | 112 W/m² | - |
| 1777383799 | 11.67° C | 85% | 1016.4 hPa | 0 mm | - | 132 W/m² | - |
| 1777383496 | 11.67° C | 84% | 1016.5 hPa | 0 mm | - | 182 W/m² | - |
| 1777383192 | 11.11° C | 85% | 1016.3 hPa | 0 mm | - | 179 W/m² | - |
| 1777382890 | 11.11° C | 85% | 1016.2 hPa | 0 mm | - | 130 W/m² | - |
| 1777382585 | 11.11° C | 86% | 1016.3 hPa | 0 mm | - | 92 W/m² | - |
| 1777382280 | 11.11° C | 86% | 1016.3 hPa | 0 mm | - | 58 W/m² | - |
| 1777381977 | 11.11° C | 86% | 1016.2 hPa | 0 mm | - | 59 W/m² | - |
| 1777381677 | 11.11° C | 86% | 1016.1 hPa | 0 mm | - | 59 W/m² | - |
| 1777381373 | 10.56° C | 86% | 1015.9 hPa | 0 mm | - | 63 W/m² | - |
| 1777381069 | 10.56° C | 86% | 1016.1 hPa | 0 mm | - | 63 W/m² | - |
| 1777380765 | 10.56° C | 87% | 1016 hPa | 0 mm | - | 60 W/m² | - |
| 1777380463 | 10.56° C | 86% | 1016 hPa | 0 mm | - | 59 W/m² | - |
| 1777380159 | 10.56° C | 88% | 1016 hPa | 0 mm | - | 60 W/m² | - |
| 1777379856 | 10.56° C | 89% | 1015.8 hPa | 0 mm | - | 69 W/m² | - |
| 1777379551 | 10.56° C | 88% | 1015.7 hPa | 0 mm | - | 48 W/m² | - |
| 1777379247 | 10.56° C | 87% | 1015.6 hPa | 0 mm | - | 32 W/m² | - |
| 1777378941 | 10.56° C | 87% | 1015.6 hPa | 0 mm | - | 19 W/m² | - |
| 1777378638 | 10.56° C | 86% | 1015.5 hPa | 0 mm | - | 16 W/m² | - |
| 1777378335 | 10.56° C | 87% | 1015.4 hPa | 0 mm | - | 14 W/m² | - |
| 1777378034 | 10.56° C | 87% | 1015.2 hPa | 0 mm | - | 12 W/m² | - |
| 1777377734 | 10.56° C | 87% | 1015.2 hPa | 0 mm | - | 12 W/m² | - |
| 1777377429 | 10.56° C | 87% | 1015.2 hPa | 0 mm | - | 10 W/m² | - |
| 1777377125 | 10.56° C | 87% | 1015 hPa | 0 mm | - | 9 W/m² | - |
* Rain latest hour (hover to see other rain measurements)
** Current wind speed in m/s (hover to see current wind gust speed)